Flag for Romania Weather past 2 weeks in Oradea, Romania

Now
63 °F

Clear.


Feels Like: 63 °F
Forecast: 51 / 61 °F
Wind: 12 mph from South

Location: Oradea Airport

Current Time: Oct 20, 2014 at 9:12:52 PM

Latest Report: Oct 20, 2014 at 8:30 PM


Visibility: 10 mi

Pressure: 30.01 "Hg

Humidity: 83%

Dew point: 57 °F

Location of OradeaLocation

Historic Weather in Oradea — Graph

°F

Oradea temperature yesterday

Maximum temperature yesterday: 64 °F (at 3:00 PM)
Minimum temperature yesterday: 45 °F (at 2:00 AM)
Average temperature yesterday: 53 °F

Past Weeks' High & Low Weather Summary

 TemperatureHumidityPressure
High79 °F (Oct 11, 3:00 PM)100% (Oct 16, 10:30 PM)30.39 "Hg (Oct 16, 10:30 PM)
Low45 °F (Oct 6, 8:00 AM)33% (Oct 6, 4:30 PM)29.80 "Hg (Oct 15, 4:00 PM)
Average60 °F76%30.06 "Hg
* Reported Oct 5 8:00 PM — Oct 20 8:00 PM, Oradea, Weather by CustomWeather, © 2014

Note: Actual official high and low records may vary slightly from our data, if they occured in-between our weather recording intervals... More about our weather records

Advertising

Oradea weather history for previous 24 hours

 ConditionsComfort  
Time TempWeatherWind HumidityBarometerVisibility
8:00 PM
Oct 20
63 °FClear.12 mph83%30.04 "Hg10 mi
7:30 PM61 °FSunny.9 mph83%30.04 "Hg10 mi
7:00 PM63 °FSunny.9 mph83%30.04 "Hg10 mi
6:30 PM64 °FSunny.9 mph78%30.04 "Hg10 mi
6:00 PM66 °FSunny.12 mph73%30.04 "Hg10 mi
5:30 PM66 °FSunny.14 mph73%30.04 "Hg10 mi
5:00 PM68 °FSunny.16 mph64%30.04 "Hg10 mi
4:30 PM68 °FSunny.16 mph64%30.04 "Hg10 mi
4:00 PM68 °FSunny.18 mph60%30.04 "Hg10 mi
3:30 PM66 °FSunny.20 mph64%30.07 "Hg10 mi
3:00 PM68 °FSunny.18 mph60%30.07 "Hg10 mi
2:30 PM66 °FSunny.18 mph60%30.07 "Hg10 mi
2:00 PM66 °FSunny.18 mph60%30.07 "Hg10 mi
1:30 PM64 °FSunny.18 mph64%30.09 "Hg10 mi
1:00 PM64 °FSunny.16 mph64%30.09 "Hg10 mi
12:30 PM63 °FSunny.18 mph64%30.12 "Hg10 mi
12:00 PM63 °FSunny.18 mph59%30.12 "Hg10 mi
11:30 AM61 °FPassing clouds.18 mph63%30.12 "HgN/A
11:00 AM61 °FPassing clouds.16 mph63%30.12 "HgN/A
10:30 AM59 °FSunny.16 mph68%30.12 "Hg10 mi
9:30 AM55 °FSunny.7 mph77%30.12 "Hg10 mi
9:00 AM48 °FSunny.7 mph87%30.12 "Hg10 mi
8:30 AM46 °FCool.7 mph87%30.12 "HgN/A
8:00 AM45 °FClear.7 mph87%30.15 "Hg10 mi
6:00 AM45 °FClear.7 mph93%30.15 "Hg10 mi
5:30 AM45 °FClear.7 mph93%30.18 "Hg10 mi
5:00 AM45 °FClear.7 mph93%30.18 "Hg10 mi
4:00 AM45 °FQuite cool.7 mph93%30.18 "HgN/A
3:00 AM46 °FCool.7 mph93%30.21 "HgN/A
2:00 AM46 °FCool.7 mph93%30.21 "Hg6 mi
1:00 AM48 °FCool.7 mph87%30.24 "Hg6 mi
12:00 AM48 °FCool.7 mph94%30.24 "Hg4 mi
11:00 PM
Oct 19
48 °FCool.7 mph94%30.24 "Hg4 mi
10:30 PM50 °FClear.7 mph88%30.27 "Hg10 mi
10:00 PM50 °FClear.7 mph94%30.24 "Hg10 mi
9:30 PM52 °FClear.7 mph88%30.27 "Hg10 mi
9:00 PM52 °FClear.5 mph88%30.27 "Hg10 mi
Weather by CustomWeather, © 2014

See weather overviewHow to use our weather pages